Manitowoc, WI

4:33 AM CDT on April 20, 2018 (GMT -0500)
Manitowoc County

Weather History for KMTW - April, 2014

Change the Weather History Date:

Thursday, April 10, 2014

  Actual Average Record
Temperature  
Mean Temperature 54 °F -  
Max Temperature 61 °F 50 °F 82 °F (1977)
Min Temperature 46 °F 30 °F 18 °F (1989)
Degree Days  
Heating Degree Days 12    
Growing Degree Days 4 (Base 50)    
Moisture  
Dew Point 29 °F    
Average Humidity 38    
Maximum Humidity 55    
Minimum Humidity 21    
Precipitation  
Precipitation 0.00 in - - ()
Sea Level Pressure  
Sea Level Pressure 29.77 in    
Wind  
Wind Speed 17 mph (West)    
Max Wind Speed 26 mph    
Max Gust Speed 37 mph    
Visibility 10 miles    
Events      
Averages and records for this station are not official NWS values.
T = Trace of Precipitation, MM = Missing Value Source: NWS Daily Summary

Daily Weather History Graph

Daily Weather History Graph

Search for Another Location

Airport or City:

Astronomy

Apr. 10, 2014 Rise Set
Actual Time 6:15 AM CDT 7:28 PM CDT
Civil Twilight 5:46 AM CDT 7:58 PM CDT
Nautical Twilight 5:10 AM CDT 8:34 PM CDT
Astronomical Twilight 4:32 AM CDT 9:12 PM CDT
Moon 3:03 PM CDT (4/10) 3:48 AM CDT (4/10)
Length of Visible Light 14h 12m
Length of Day
13h 12m
Waxing Gibbous, 80% of the Moon is Illuminated
Apr 10
Waxing Gibbous
Apr 15
Full
Apr 22
Last Quarter
Apr 29
New
May 6
First Quarter

Hourly Weather History & Observations

Time (CDT) Temp. Windchill Dew Point Humidity Pressure Visibility Wind Dir Wind Speed Gust Speed Precip Events Conditions
12:56 AM 57.0 °F - 30.9 °F 37% 29.68 in 10.0 mi SW 20.7 mph 28.8 mph N/A   Clear
1:56 AM 57.0 °F - 32.0 °F 39% 29.66 in 10.0 mi SW 26.5 mph 36.8 mph N/A   Clear
2:56 AM 57.0 °F - 33.1 °F 40% 29.65 in 10.0 mi WSW 18.4 mph 31.1 mph N/A   Clear
3:56 AM 57.0 °F - 33.1 °F 40% 29.63 in 10.0 mi WSW 15.0 mph 26.5 mph N/A   Clear
4:56 AM 57.9 °F - 33.1 °F 39% 29.62 in 10.0 mi WSW 19.6 mph 29.9 mph N/A   Partly Cloudy
5:56 AM 55.0 °F - 34.0 °F 45% 29.64 in 10.0 mi WSW 16.1 mph 25.3 mph N/A   Partly Cloudy
7:56 AM 54.0 °F - 36.0 °F 51% 29.68 in 10.0 mi West 12.7 mph - N/A   Clear
8:56 AM 54.0 °F - 37.9 °F 55% 29.68 in 10.0 mi West 8.1 mph - N/A   Clear
9:56 AM 55.9 °F - 37.9 °F 51% 29.70 in 10.0 mi WNW 11.5 mph - N/A   Clear
10:56 AM 55.0 °F - 37.0 °F 51% 29.75 in 10.0 mi WNW 12.7 mph - N/A   Overcast
11:56 AM 54.0 °F - 33.1 °F 45% 29.74 in 10.0 mi WNW 16.1 mph 19.6 mph N/A   Mostly Cloudy
12:56 PM 55.9 °F - 37.9 °F 51% 29.75 in 10.0 mi West 16.1 mph - N/A   Mostly Cloudy
1:56 PM 57.9 °F - 28.9 °F 33% 29.76 in 10.0 mi West 15.0 mph 21.9 mph N/A   Clear
2:56 PM 59.0 °F - 23.0 °F 25% 29.75 in 10.0 mi WNW 20.7 mph 25.3 mph N/A   Clear
3:56 PM 61.0 °F - 26.1 °F 26% 29.76 in 10.0 mi West 15.0 mph 24.2 mph N/A   Clear
4:56 PM 61.0 °F - 21.9 °F 22% 29.78 in 10.0 mi West 16.1 mph 31.1 mph N/A   Clear
5:56 PM 61.0 °F - 21.0 °F 21% 29.82 in 10.0 mi WNW 15.0 mph 24.2 mph N/A   Clear
6:56 PM 57.9 °F - 21.9 °F 25% 29.86 in 10.0 mi WNW 11.5 mph 20.7 mph N/A   Clear
7:56 PM 54.0 °F - 23.0 °F 30% 29.90 in 10.0 mi NW 9.2 mph - N/A   Clear
8:56 PM 51.1 °F - 21.9 °F 32% 29.94 in 10.0 mi NW 11.5 mph - N/A   Clear
9:56 PM 50.0 °F - 21.9 °F 33% 29.97 in 10.0 mi NW 10.4 mph - N/A   Clear
10:56 PM 46.9 °F - 21.9 °F 37% 29.98 in 10.0 mi NNW 6.9 mph - N/A   Clear
11:56 PM 46.0 °F 43.9 °F 21.0 °F 37% 30.00 in 10.0 mi WNW 4.6 mph - N/A   Clear